Flag for U.S.A. Weather past 2 weeks in Kailua-Kona, Hawaii, U.S.A.

Now
81 °F

Sunny.


Feels Like: 82 °F
Forecast: 65 / 75 °F
Wind: 6 mph from Southwest

Location: Keahole Airport

Current Time: Jan 28, 2015 at 11:05:03 AM

Latest Report: Jan 28, 2015 at 9:53 AM


Visibility: 10 mi

Pressure: 29.97 "Hg

Humidity: 49%

Dew point: 60 °F

Location of Kailua-KonaLocation

Historic Weather in Kailua-Kona — Graph

°F

Kailua-Kona temperature yesterday

Maximum temperature yesterday: 81 °F (at 11:53 AM)
Minimum temperature yesterday: 73 °F (at 6:00 AM)
Average temperature yesterday: 77 °F

Past Weeks' High & Low Weather Summary

 TemperatureHumidityPressure
High83 °F (Jan 15, 2:53 PM)87% (Jan 24, 5:53 AM)30.10 "Hg (Jan 24, 5:53 AM)
Low66 °F (Jan 14, 4:53 AM)44% (Jan 17, 9:53 AM)29.84 "Hg (Jan 26, 3:53 PM)
Average76 °F66%29.98 "Hg
* Reported Jan 13 9:53 AM — Jan 28 9:53 AM, Kailua-Kona, Weather by CustomWeather, © 2014

Note: Actual official high and low records may vary slightly from our data, if they occured in-between our weather recording intervals... More about our weather records

Advertising

Kailua-Kona weather history for previous 24 hours

 ConditionsComfort  
Time TempWeatherWind HumidityBarometerVisibility
9:53 AM
Jan 28
81 °FSunny.6 mph49%29.97 "Hg10 mi
8:53 AM78 °FPartly sunny.5 mph52%29.96 "Hg10 mi
7:53 AM75 °FOvercast.6 mph62%29.95 "Hg10 mi
6:53 AM74 °FOvercast.7 mph64%29.94 "Hg10 mi
5:53 AM74 °FOvercast.5 mph64%29.92 "Hg10 mi
4:53 AM74 °FOvercast.5 mph67%29.90 "Hg10 mi
3:53 AM74 °FPassing clouds.6 mph69%29.89 "Hg10 mi
2:53 AM73 °FOvercast.6 mph71%29.89 "Hg10 mi
1:53 AM75 °FOvercast.3 mph66%29.90 "Hg10 mi
12:53 AM74 °FOvercast.No wind69%29.91 "Hg10 mi
11:53 PM
Jan 27
74 °FClear.3 mph71%29.92 "Hg10 mi
10:53 PM76 °FPassing clouds.No wind67%29.93 "Hg10 mi
9:53 PM76 °FOvercast.No wind69%29.93 "Hg10 mi
8:53 PM76 °FOvercast.5 mph69%29.93 "Hg10 mi
7:53 PM76 °FPassing clouds.6 mph69%29.92 "Hg10 mi
6:53 PM76 °FPassing clouds.5 mph69%29.90 "Hg10 mi
5:53 PM78 °FPartly sunny.8 mph64%29.89 "Hg10 mi
4:53 PM79 °FScattered clouds.10 mph62%29.87 "Hg10 mi
3:53 PM80 °FScattered clouds.12 mph60%29.86 "Hg10 mi
2:53 PM81 °FPartly sunny.14 mph56%29.86 "Hg10 mi
1:53 PM81 °FPartly sunny.12 mph58%29.87 "Hg10 mi
12:53 PM81 °FPartly sunny.12 mph56%29.90 "Hg10 mi
11:53 AM81 °FPassing clouds.9 mph58%29.93 "Hg10 mi
Weather by CustomWeather, © 2014

See weather overviewHow to use our weather pages